Project,Study,Ord_Occ,Event_Num,Cast_ID,Date_Time_UTC,Date_Time_PST,Lat_Dec,Lon_Dec,Sta_ID,Line,Sta,Depth,Pressure,PrQ,Temp1,Temp1Q,Temp2,Temp2Q,TempAve,Salt1,Salt1Q,Salt1_Corr,Salt2,Salt2Q,Salt2_Corr,SaltAve_Corr,Ox1,Ox1Q,Ox1_CruiseCorr,Ox1_StaCorr,Ox2,Ox2Q,Ox2_CruiseCorr,Ox2_StaCorr,OxAve_StaCorr,Ox1uM,Ox1uM_CruiseCorr,Ox1uM_StaCorr,Ox2uM,Ox2uM_CruiseCorr,Ox2uM_StaCorr,OxAveuM_StaCorr,FluorV,FluorQ,EstChl_CruiseCorr,EstChl_StaCorr,ISUSV,ISUSQ,EstNO3_CruiseCorr,EstNO3_StaCorr,SigThetaTS1,SigThetaTS1Q,SigThetaTS2,SigThetaTS2Q,BAT,XMiss,TransQ,pH,pHQ,SPAR,SPARQ,PAR,PARQ,PoT1,PoT2,DynHt,SVA,OxSat1,OxSat2,BTL_Depth,BTL_Temp,SaltB,OxB,OxBuM,Chl-a,Phaeo,NO3,NO2,NH4,PO4,SIL
CalCOFI,2007SR,009,10,2007_009d,14-Jul-2020 18:16:09,14-Jul-2020 10:16:09,32.18024,-118.88911,093.3 050.0,093.3,050.0,3.000,3.021,,20.0323,,20.0343,,20.0333,33.7022,,33.7024,33.7019,,33.7035,33.7030,5.5056,,5.7351,5.7258,3.7886,,5.1033,4.3727,5.0493,240.171,250.2264,255.0375,165.274,421.8792,173.9135,214.4755,0.1570,,1.4237,1.1318,-99.0,,-99.0,-99.0,23.7638,,23.7630,,0.9710,78.4461,,8.284,,1.0607E+03,,2.1737E+01,,20.0317,20.0337,0.0044,,105.639,72.698,2,20.059,33.7146,5.718,249.53,0.012,0.011,0.06,0.031,0.26,0.07,0.53
CalCOFI,2007SR,009,10,2007_009d,14-Jul-2020 18:16:15,14-Jul-2020 10:16:15,32.18024,-118.88910,093.3 050.0,093.3,050.0,4.000,4.028,,20.0406,,20.0410,,20.0408,33.7025,,33.7027,33.7022,,33.7038,33.7033,5.5053,,5.7348,5.7255,3.7917,,5.1107,4.3799,5.0527,240.161,250.2160,255.0268,165.409,421.8547,174.1870,214.6069,0.1591,,1.4485,1.1581,-99.0,,-99.0,-99.0,23.7619,,23.7616,,0.9696,78.4740,,8.286,,1.0573E+03,,1.6981E+01,,20.0399,20.0402,0.0106,,105.651,72.766,,,,,,,,,,,,
CalCOFI,2007SR,009,10,2007_009d,14-Jul-2020 18:16:18,14-Jul-2020 10:16:18,32.18024,-118.88910,093.3 050.0,093.3,050.0,5.000,5.035,,20.0406,,20.0408,,20.0407,33.7025,,33.7027,33.7022,,33.7038,33.7033,5.5092,,5.7389,5.7295,3.7960,,5.1210,4.3899,5.0597,240.332,250.3945,255.2092,165.594,422.2730,174.5618,214.8855,0.1600,,1.4591,1.1695,-99.0,,-99.0,-99.0,23.7620,,23.7616,,0.9732,78.4050,,8.286,,1.0622E+03,,1.3407E+01,,20.0396,20.0399,0.0149,,105.726,72.848,,,,,,,,,,,,
CalCOFI,2007SR,009,10,2007_009d,14-Jul-2020 18:16:20,14-Jul-2020 10:16:20,32.18024,-118.88910,093.3 050.0,093.3,050.0,6.000,6.042,,20.0413,,20.0414,,20.0414,33.7027,,33.7029,33.7023,,33.7039,33.7034,5.5072,,5.7368,5.7275,3.7955,,5.1198,4.3887,5.0581,240.243,250.3016,255.1143,165.575,422.0553,174.5233,214.8188,0.1603,,1.4627,1.1733,-99.0,,-99.0,-99.0,23.7620,,23.7616,,0.9700,78.4658,,8.286,,1.0641E+03,,1.1151E+01,,20.0402,20.0403,0.0190,,105.688,72.840,,,,,,,,,,,,
CalCOFI,2007SR,009,10,2007_009d,14-Jul-2020 18:16:22,14-Jul-2020 10:16:22,32.18024,-118.88910,093.3 050.0,093.3,050.0,7.000,7.049,,20.0408,,20.0410,,20.0409,33.7027,,33.7029,33.7023,,33.7039,33.7034,5.5066,,5.7361,5.7268,3.7961,,5.1212,4.3901,5.0585,240.215,250.2723,255.0844,165.597,421.9868,174.5679,214.8262,0.1637,,1.5028,1.2167,-99.0,,-99.0,-99.0,23.7622,,23.7617,,0.9688,78.4896,,8.286,,1.0601E+03,,8.9458E+00,,20.0395,20.0398,0.0232,,105.675,72.850,,,,,,,,,,,,
CalCOFI,2007SR,009,10,2007_009d,14-Jul-2020 18:16:24,14-Jul-2020 10:16:24,32.18024,-118.88910,093.3 050.0,093.3,050.0,8.000,8.056,,20.0392,,20.0381,,20.0387,33.7023,,33.7025,33.7019,,33.7035,33.7030,5.4775,,5.7057,5.6965,3.8027,,5.1370,4.4054,5.0510,238.948,248.9497,253.7330,165.889,418.8879,175.1595,214.4463,0.1693,,1.5690,1.2897,-99.0,,-99.0,-99.0,23.7623,,23.7622,,0.9704,78.4580,,8.286,,1.0618E+03,,7.2646E+00,,20.0378,20.0366,0.0273,,105.115,72.974,,,,,,,,,,,,
CalCOFI,2007SR,009,10,2007_009d,14-Jul-2020 18:16:26,14-Jul-2020 10:16:26,32.18024,-118.88910,093.3 050.0,093.3,050.0,9.000,9.063,,19.9458,,19.9432,,19.9445,33.6929,,33.6931,33.6916,,33.6932,33.6932,5.4854,,5.7140,5.7048,3.8210,,5.1807,4.4478,5.0763,239.287,249.3036,254.0946,166.684,419.7170,176.7702,215.4324,0.1763,,1.6518,1.3836,-99.0,,-99.0,-99.0,23.7796,,23.7793,,0.9675,78.5156,,8.283,,1.0626E+03,,6.0942E+00,,19.9442,19.9415,0.0315,,105.079,73.192,,,,,,,,,,,,
CalCOFI,2007SR,009,10,2007_009d,14-Jul-2020 18:16:28,14-Jul-2020 10:16:28,32.18024,-118.88910,093.3 050.0,093.3,050.0,10.000,10.071,,19.6487,,19.6291,,19.6389,33.6721,,33.6723,33.6646,,33.6662,33.6693,5.5388,,5.7698,5.7604,3.8479,,5.2449,4.5102,5.1353,241.604,251.7223,256.5660,167.844,425.3841,179.1203,217.8432,0.1683,,1.5572,1.2766,-99.0,,-99.0,-99.0,23.8409,,23.8403,,0.9584,78.6939,,8.281,,1.0611E+03,,5.0839E+00,,19.6468,19.6273,0.0356,,105.510,73.269,,,,,,,,,,,,
CalCOFI,2007SR,009,10,2007_009d,14-Jul-2020 18:16:30,14-Jul-2020 10:16:30,32.18024,-118.88910,093.3 050.0,093.3,050.0,11.000,11.078,,19.2694,,19.2696,,19.2695,33.6573,,33.6575,33.6567,,33.6583,33.6579,5.5556,,5.7873,5.7779,3.8765,,5.3132,4.5765,5.1772,242.317,252.4666,257.3265,169.077,427.1280,181.6183,219.4724,0.1560,,1.4119,1.1194,-99.0,,-99.0,-99.0,23.9272,,23.9266,,0.9350,79.1558,,8.274,,1.0647E+03,,4.3732E+00,,19.2675,19.2676,0.0397,,105.081,73.320,11,18.976,33.6732,5.848,255.23,1.831,0.433,0.0,0.00,0.09,0.06,0.32
CalCOFI,2007SR,009,10,2007_009d,14-Jul-2020 18:16:32,14-Jul-2020 10:16:32,32.18024,-118.88910,093.3 050.0,093.3,050.0,12.000,12.085,,18.9863,,19.0699,,19.0281,33.6700,,33.6702,33.6539,,33.6555,33.6629,5.5514,,5.7830,5.7735,3.9157,,5.4068,4.6673,5.2204,242.113,252.2537,257.1089,170.781,426.6290,185.0706,221.0898,0.1453,,1.2855,0.9899,-99.0,,-99.0,-99.0,24.0089,,23.9754,,0.9076,79.7009,,8.265,,1.0609E+03,,3.9688E+00,,18.9842,19.0677,0.0436,,104.456,73.786,,,,,,,,,,,,
CalCOFI,2007SR,009,10,2007_009d,14-Jul-2020 18:16:35,14-Jul-2020 10:16:35,32.18024,-118.88910,093.3 050.0,093.3,050.0,13.000,13.092,,18.3889,,18.4395,,18.4142,33.6197,,33.6199,33.6145,,33.6161,33.6180,5.7003,,5.9385,5.9286,3.9864,,5.5755,4.8312,5.3799,248.579,259.0035,264.0059,173.842,442.4439,191.2722,227.6391,0.1412,,1.2371,0.9421,-99.0,,-99.0,-99.0,24.1200,,24.1034,,0.8843,80.1660,,8.259,,1.0601E+03,,3.5181E+00,,18.3866,18.4373,0.0475,,106.029,74.219,,,,,,,,,,,,
CalCOFI,2007SR,009,10,2007_009d,14-Jul-2020 18:16:36,14-Jul-2020 10:16:36,32.18024,-118.88910,093.3 050.0,093.3,050.0,14.000,14.099,,17.8437,,17.8003,,17.8220,33.5888,,33.5890,33.5738,,33.5754,33.5822,5.7473,,5.9877,5.9776,4.0286,,5.6763,4.9290,5.4533,250.600,261.1132,266.1615,175.659,447.3870,194.9534,230.5575,0.1441,,1.2713,0.9758,-99.0,,-99.0,-99.0,24.2296,,24.2286,,0.8693,80.4662,,8.255,,1.0651E+03,,3.0267E+00,,17.8413,17.7979,0.0513,,105.786,74.081,,,,,,,,,,,,
CalCOFI,2007SR,009,10,2007_009d,14-Jul-2020 18:16:38,14-Jul-2020 10:16:38,32.18024,-118.88910,093.3 050.0,093.3,050.0,15.000,15.106,,17.1613,,17.1952,,17.1783,33.6017,,33.6019,33.5899,,33.5915,33.5967,5.8343,,6.0786,6.0682,4.0954,,5.8357,5.0838,5.5760,254.354,265.0320,270.1657,178.545,456.5688,200.8004,235.4831,0.1339,,1.1510,0.8594,-99.0,,-99.0,-99.0,24.4036,,24.3866,,0.8379,81.1016,,8.248,,1.0669E+03,,2.8068E+00,,17.1589,17.1928,0.0549,,106.004,74.453,,,,,,,,,,,,
CalCOFI,2007SR,009,10,2007_009d,14-Jul-2020 18:16:41,14-Jul-2020 10:16:41,32.18024,-118.88910,093.3 050.0,093.3,050.0,16.000,16.113,,16.4989,,16.5955,,16.5472,33.5586,,33.5588,33.5544,,33.5560,33.5574,5.9678,,6.2181,6.2073,4.1609,,5.9921,5.2356,5.7215,260.143,271.0752,276.3405,181.384,470.7278,206.5521,241.4463,0.1251,,1.0472,0.7640,-99.0,,-99.0,-99.0,24.5255,,24.4999,,0.8213,81.4393,,8.242,,1.0624E+03,,2.5693E+00,,16.4963,16.5929,0.0584,,107.023,74.757,,,,,,,,,,,,
CalCOFI,2007SR,009,10,2007_009d,14-Jul-2020 18:16:42,14-Jul-2020 10:16:42,32.18024,-118.88910,093.3 050.0,093.3,050.0,17.000,17.120,,16.0365,,16.1428,,16.0897,33.5512,,33.5514,33.5556,,33.5572,33.5543,6.0416,,6.2952,6.2842,4.2053,,6.0981,5.3386,5.8114,263.332,274.4042,279.7421,183.298,478.5277,210.4299,245.0860,0.1266,,1.0649,0.7799,-99.0,,-99.0,-99.0,24.6257,,24.6049,,0.8054,81.7622,,8.239,,1.0620E+03,,2.3178E+00,,16.0338,16.1401,0.0618,,107.367,74.891,,,,,,,,,,,,
CalCOFI,2007SR,009,10,2007_009d,14-Jul-2020 18:16:44,14-Jul-2020 10:16:44,32.18024,-118.88910,093.3 050.0,093.3,050.0,18.000,18.127,,15.7764,,15.8347,,15.8056,33.5516,,33.5518,33.5542,,33.5558,33.5538,6.0784,,6.3336,6.3225,4.2353,,6.1697,5.4081,5.8653,264.924,276.0661,281.4402,184.594,482.4215,213.0555,247.2479,0.1222,,1.0130,0.7335,-99.0,,-99.0,-99.0,24.6846,,24.6736,,0.8009,81.8548,,8.236,,1.0633E+03,,2.1472E+00,,15.7736,15.8319,0.0651,,107.473,74.971,,,,,,,,,,,,
CalCOFI,2007SR,009,10,2007_009d,14-Jul-2020 18:16:46,14-Jul-2020 10:16:46,32.18024,-118.88910,093.3 050.0,093.3,050.0,19.000,19.134,,15.7099,,15.7356,,15.7228,33.5569,,33.5571,33.5591,,33.5607,33.5589,6.0735,,6.3285,6.3174,4.2517,,6.2089,5.4461,5.8818,264.701,275.8333,281.2023,185.305,481.8761,214.4960,247.8492,0.1241,,1.0354,0.7534,-99.0,,-99.0,-99.0,24.7037,,24.6996,,0.8008,81.8573,,8.232,,1.0657E+03,,1.9757E+00,,15.7069,15.7327,0.0683,,107.247,75.118,,,,,,,,,,,,
CalCOFI,2007SR,009,10,2007_009d,14-Jul-2020 18:16:48,14-Jul-2020 10:16:48,32.18024,-118.88910,093.3 050.0,093.3,050.0,20.000,20.142,,15.6896,,15.6951,,15.6924,33.5590,,33.5592,33.5606,,33.5622,33.5607,6.0723,,6.3272,6.3162,4.2618,,6.2330,5.4695,5.8929,264.649,275.7790,281.1468,185.743,481.7489,215.3834,248.2651,0.1250,,1.0460,0.7629,-99.0,,-99.0,-99.0,24.7098,,24.7099,,0.7975,81.9250,,8.229,,1.0682E+03,,1.8008E+00,,15.6865,15.6920,0.0716,,107.186,75.237,,,,,,,,,,,,
CalCOFI,2007SR,009,10,2007_009d,14-Jul-2020 18:16:50,14-Jul-2020 10:16:50,32.18024,-118.88910,093.3 050.0,093.3,050.0,21.000,21.149,,15.6715,,15.6782,,15.6749,33.5632,,33.5634,33.5646,,33.5662,33.5648,6.0619,,6.3164,6.3053,4.2680,,6.2478,5.4839,5.8946,264.192,275.3019,280.6594,186.013,480.6311,215.9304,248.2949,0.1209,,0.9976,0.7201,-99.0,,-99.0,-99.0,24.7172,,24.7167,,0.8030,81.8120,,8.227,,1.0662E+03,,1.5994E+00,,15.6683,15.6750,0.0748,,106.966,75.324,21,15.784,33.5597,6.244,272.51,1.080,0.228,0.0,0.00,0.12,0.22,0.84
CalCOFI,2007SR,009,10,2007_009d,14-Jul-2020 18:16:53,14-Jul-2020 10:16:53,32.18024,-118.88910,093.3 050.0,093.3,050.0,22.000,22.156,,15.6488,,15.6645,,15.6567,33.5653,,33.5655,33.5656,,33.5672,33.5664,6.0029,,6.2547,6.2439,4.2812,,6.2793,5.5145,5.8792,261.623,272.6201,277.9192,186.587,474.3477,217.0933,247.5063,0.1219,,1.0094,0.7304,-99.0,,-99.0,-99.0,24.7239,,24.7207,,0.8010,81.8526,,8.224,,1.0610E+03,,1.3771E+00,,15.6454,15.6611,0.0781,,105.881,75.536,,,,,,,,,,,,
CalCOFI,2007SR,009,10,2007_009d,14-Jul-2020 18:16:55,14-Jul-2020 10:16:55,32.18024,-118.88910,093.3 050.0,093.3,050.0,23.000,23.163,,15.5575,,15.5579,,15.5577,33.5617,,33.5619,33.5636,,33.5652,33.5636,5.8997,,6.1469,6.1363,4.3131,,6.3555,5.5884,5.8624,257.119,267.9184,273.1150,187.973,463.3316,219.9013,246.5082,0.1258,,1.0554,0.7714,-99.0,,-99.0,-99.0,24.7415,,24.7429,,0.8007,81.8598,,8.223,,1.0653E+03,,1.2194E+00,,15.5540,15.5543,0.0813,,103.870,75.938,,,,,,,,,,,,
CalCOFI,2007SR,009,10,2007_009d,14-Jul-2020 18:16:56,14-Jul-2020 10:16:56,32.18024,-118.88910,093.3 050.0,093.3,050.0,24.000,24.170,,15.3405,,15.3216,,15.3311,33.5522,,33.5524,33.5493,,33.5509,33.5517,5.9257,,6.1741,6.1634,4.3401,,6.4199,5.6510,5.9072,258.243,269.0918,274.3139,189.139,466.0807,222.2636,248.2888,0.1476,,1.3127,1.0171,-99.0,,-99.0,-99.0,24.7822,,24.7841,,0.8073,81.7247,,8.222,,1.0711E+03,,1.0945E+00,,15.3369,15.3180,0.0845,,103.874,76.049,,,,,,,,,,,,
CalCOFI,2007SR,009,10,2007_009d,14-Jul-2020 18:16:58,14-Jul-2020 10:16:58,32.18024,-118.88910,093.3 050.0,093.3,050.0,25.000,25.177,,14.8750,,14.8650,,14.8700,33.5441,,33.5443,33.5416,,33.5432,33.5438,5.9658,,6.2160,6.2052,4.3848,,6.5266,5.7546,5.9799,259.964,270.8883,276.1496,191.072,470.2900,226.1799,251.1648,0.2065,,2.0091,1.8220,-99.0,,-99.0,-99.0,24.8774,,24.8776,,0.8220,81.4239,,8.218,,1.0716E+03,,9.8045E-01,,14.8713,14.8613,0.0877,,103.609,76.134,,,,,,,,,,,,
CalCOFI,2007SR,009,10,2007_009d,14-Jul-2020 18:17:01,14-Jul-2020 10:17:01,32.18024,-118.88910,093.3 050.0,093.3,050.0,26.000,26.184,,14.7735,,14.5504,,14.6620,33.5538,,33.5540,33.5408,,33.5424,33.5482,5.4210,,5.6467,5.6377,4.4316,,6.6384,5.8631,5.7504,236.218,246.0999,250.8211,193.098,412.2107,230.2845,240.5528,0.2677,,2.7350,2.8761,-99.0,,-99.0,-99.0,24.9066,,24.9445,,0.8618,80.6186,,8.199,,1.0639E+03,,8.2228E-01,,14.7696,14.5466,0.0907,,93.961,76.462,,,,,,,,,,,,
CalCOFI,2007SR,009,10,2007_009d,14-Jul-2020 18:17:03,14-Jul-2020 10:17:03,32.18024,-118.88910,093.3 050.0,093.3,050.0,27.000,27.192,,13.8328,,13.8900,,13.8614,33.5382,,33.5384,33.5368,,33.5384,33.5384,5.1352,,5.3481,5.3399,4.4909,,6.7799,6.0005,5.6702,223.726,233.0595,237.4965,195.656,381.6570,235.4670,236.4818,0.3521,,3.7399,4.6941,-99.0,,-99.0,-99.0,25.0930,,25.0800,,0.9274,79.3063,,8.185,,1.0694E+03,,6.9706E-01,,13.8290,13.8862,0.0937,,87.325,76.457,,,,,,,,,,,,
CalCOFI,2007SR,009,10,2007_009d,14-Jul-2020 18:17:05,14-Jul-2020 10:17:05,32.18024,-118.88910,093.3 050.0,093.3,050.0,28.000,28.199,,13.5905,,13.5753,,13.5829,33.5421,,33.5423,33.5420,,33.5436,33.5430,5.0254,,5.2333,5.2255,4.5142,,6.8355,6.0545,5.6400,218.928,228.0508,232.3788,196.660,369.9218,237.5011,234.9400,0.4297,,4.6676,6.7383,-99.0,,-99.0,-99.0,25.1457,,25.1487,,0.9545,78.7708,,8.173,,1.0737E+03,,6.1831E-01,,13.5865,13.5714,0.0966,,85.040,76.366,,,,,,,,,,,,
CalCOFI,2007SR,009,10,2007_009d,14-Jul-2020 18:17:06,14-Jul-2020 10:17:06,32.18024,-118.88910,093.3 050.0,093.3,050.0,29.000,29.206,,13.3878,,13.3828,,13.3853,33.5506,,33.5508,33.5535,,33.5551,33.5530,4.9967,,5.2034,5.1956,4.5156,,6.8389,6.0578,5.6267,217.669,226.7366,231.0359,196.710,366.8425,237.6024,234.3192,0.4149,,4.4903,6.3209,-99.0,,-99.0,-99.0,25.1933,,25.1966,,0.9582,78.6985,,8.158,,1.0712E+03,,5.6458E-01,,13.3838,13.3787,0.0994,,84.208,76.094,,,,,,,,,,,,
CalCOFI,2007SR,009,10,2007_009d,14-Jul-2020 18:17:08,14-Jul-2020 10:17:08,32.18024,-118.88910,093.3 050.0,093.3,050.0,30.000,30.213,,13.2540,,13.3171,,13.2856,33.5643,,33.5645,33.5630,,33.5646,33.5646,4.7087,,4.9024,4.8956,4.5125,,6.8315,6.0506,5.4731,205.115,213.6314,217.6452,196.569,336.1372,237.3167,227.4810,0.3145,,3.2917,3.8320,-99.0,,-99.0,-99.0,25.2309,,25.2172,,0.9407,79.0430,,8.135,,1.0696E+03,,4.8021E-01,,13.2499,13.3129,0.1022,,79.145,75.943,,,,,,,,,,,,
CalCOFI,2007SR,009,10,2007_009d,14-Jul-2020 18:17:11,14-Jul-2020 10:17:11,32.18024,-118.88910,093.3 050.0,093.3,050.0,31.000,31.220,,13.0086,,12.9987,,13.0037,33.5584,,33.5586,33.5540,,33.5556,33.5571,4.0495,,4.2136,4.2089,4.5249,,6.8611,6.0793,5.1441,176.392,183.6475,187.0080,197.101,265.8848,238.3945,212.7013,0.2635,,2.6852,2.7967,-99.0,,-99.0,-99.0,25.2752,,25.2738,,0.8952,79.9484,,8.113,,1.0743E+03,,3.7521E-01,,13.0044,12.9945,0.1049,,67.718,75.651,31,13.105,33.5562,,222.98,2.861,0.754,1.44,0.090,0.09,0.54,4.85
CalCOFI,2007SR,009,10,2007_009d,14-Jul-2020 18:17:13,14-Jul-2020 10:17:13,32.18024,-118.88910,093.3 050.0,093.3,050.0,32.000,32.228,,12.4673,,12.4498,,12.4586,33.5687,,33.5689,33.5669,,33.5685,33.5687,4.0391,,4.2028,4.1981,4.5461,,6.9117,6.1285,5.1633,175.921,183.1558,186.5056,198.003,264.7328,240.2220,213.3638,0.2085,,2.0328,1.8529,-99.0,,-99.0,-99.0,25.3891,,25.3910,,0.8589,80.6766,,8.091,,1.0712E+03,,2.9714E-01,,12.4631,12.4456,0.1076,,66.796,75.152,,,,,,,,,,,,
CalCOFI,2007SR,009,10,2007_009d,14-Jul-2020 18:17:14,14-Jul-2020 10:17:14,32.18024,-118.88910,093.3 050.0,093.3,050.0,33.000,33.235,,12.2227,,12.2313,,12.2270,33.5882,,33.5884,33.5912,,33.5928,33.5906,4.0335,,4.1969,4.1922,4.5297,,6.8726,6.0905,5.1414,175.667,182.8907,186.2347,197.276,264.1116,238.7491,212.4919,0.1698,,1.5749,1.2963,-99.0,,-99.0,-99.0,25.4512,,25.4519,,0.7998,81.8792,,8.066,,1.0689E+03,,2.3396E-01,,12.2184,12.2270,0.1101,,66.372,74.552,,,,,,,,,,,,
CalCOFI,2007SR,009,10,2007_009d,14-Jul-2020 18:17:17,14-Jul-2020 10:17:17,32.18024,-118.88910,093.3 050.0,093.3,050.0,34.000,34.242,,12.1148,,12.1177,,12.1163,33.5981,,33.5983,33.6021,,33.6037,33.6010,4.0234,,4.1864,4.1817,4.4875,,6.7718,5.9926,5.0872,175.219,182.4230,185.7568,195.433,263.0158,235.0152,210.3860,0.1408,,1.2324,0.9375,-99.0,,-99.0,-99.0,25.4794,,25.4820,,0.7691,82.5084,,8.045,,1.0740E+03,,1.8253E-01,,12.1104,12.1133,0.1126,,66.059,73.687,,,,,,,,,,,,
CalCOFI,2007SR,009,10,2007_009d,14-Jul-2020 18:17:19,14-Jul-2020 10:17:19,32.18025,-118.88910,093.3 050.0,093.3,050.0,35.000,35.249,,12.0484,,12.0505,,12.0495,33.6021,,33.6023,33.6047,,33.6063,33.6043,3.9643,,4.1246,4.1201,4.4463,,6.6735,5.8971,5.0086,172.645,179.7360,183.0113,193.635,256.7202,231.3725,207.1919,0.1432,,1.2607,0.9653,-99.0,,-99.0,-99.0,25.4952,,25.4968,,0.7393,83.1254,,8.032,,1.0759E+03,,1.2496E-01,,12.0439,12.0460,0.1152,,65.001,72.908,,,,,,,,,,,,
CalCOFI,2007SR,009,10,2007_009d,14-Jul-2020 18:17:21,14-Jul-2020 10:17:21,32.18026,-118.88910,093.3 050.0,093.3,050.0,36.000,36.256,,11.9484,,11.9509,,11.9497,33.6088,,33.6090,33.6117,,33.6133,33.6112,3.8650,,4.0208,4.0167,4.4165,,6.6023,5.8281,4.9224,168.315,175.2159,178.3927,192.334,246.1296,228.7367,203.5647,0.1225,,1.0165,0.7367,-99.0,,-99.0,-99.0,25.5192,,25.5210,,0.7250,83.4230,,8.022,,1.0741E+03,,7.8256E-02,,11.9438,11.9463,0.1177,,63.243,72.272,,,,,,,,,,,,
CalCOFI,2007SR,009,10,2007_009d,14-Jul-2020 18:17:23,14-Jul-2020 10:17:23,32.18026,-118.88911,093.3 050.0,093.3,050.0,37.000,37.264,,11.7978,,11.8058,,11.8018,33.6189,,33.6191,33.6241,,33.6257,33.6224,3.7382,,3.8883,3.8846,4.3793,,6.5135,5.7419,4.8133,162.788,169.4463,172.4973,190.703,232.6114,225.4323,198.9648,0.1086,,0.8527,0.5974,-99.0,,-99.0,-99.0,25.5553,,25.5578,,0.7161,83.6086,,8.011,,1.0740E+03,,2.8546E-02,,11.7931,11.8011,0.1201,,60.978,71.449,,,,,,,,,,,,
CalCOFI,2007SR,009,10,2007_009d,14-Jul-2020 18:17:25,14-Jul-2020 10:17:25,32.18024,-118.88911,093.3 050.0,093.3,050.0,38.000,38.271,,11.6298,,11.6300,,11.6299,33.6373,,33.6375,33.6390,,33.6406,33.6391,3.6780,,3.8254,3.8219,4.3511,,6.4462,5.6765,4.7492,160.157,166.6998,169.6910,189.470,226.1763,222.9342,196.3126,0.1068,,0.8315,0.5802,-99.0,,-99.0,-99.0,25.6008,,25.6021,,0.7003,83.9399,,7.999,,1.0745E+03,,2.8431E-04,,11.6250,11.6252,0.1225,,59.790,70.734,,,,,,,,,,,,
CalCOFI,2007SR,009,10,2007_009d,14-Jul-2020 18:17:26,14-Jul-2020 10:17:26,32.18026,-118.88910,093.3 050.0,093.3,050.0,39.000,39.278,,11.5381,,11.5310,,11.5346,33.6435,,33.6437,33.6450,,33.6466,33.6452,3.6557,,3.8021,3.7987,4.3246,,6.3829,5.6151,4.7069,159.186,165.6862,168.6553,188.312,223.8014,220.5882,194.6218,0.1027,,0.7832,0.5418,-99.0,,-99.0,-99.0,25.6225,,25.6250,,0.6880,84.1987,,7.991,,1.0772E+03,,1.3638E-05,,11.5333,11.5261,0.1249,,59.316,70.159,,,,,,,,,,,,
CalCOFI,2007SR,009,10,2007_009d,14-Jul-2020 18:17:28,14-Jul-2020 10:17:28,32.18026,-118.88910,093.3 050.0,093.3,050.0,40.000,40.285,,11.4503,,11.4486,,11.4495,33.6530,,33.6532,33.6551,,33.6567,33.6550,3.6373,,3.7829,3.7795,4.2962,,6.3151,5.5492,4.6644,158.378,164.8427,167.7934,187.068,221.8251,218.0678,192.9306,0.0945,,0.6866,0.4679,-99.0,,-99.0,-99.0,25.6461,,25.6480,,0.6814,84.3372,,7.981,,1.0810E+03,,1.0000E-12,,11.4453,11.4436,0.1273,,58.910,69.580,,,,,,,,,,,,
CalCOFI,2007SR,009,10,2007_009d,14-Jul-2020 18:17:31,14-Jul-2020 10:17:31,32.18026,-118.88910,093.3 050.0,093.3,050.0,41.000,41.292,,11.4037,,11.4032,,11.4035,33.6576,,33.6578,33.6601,,33.6617,33.6598,3.5894,,3.7329,3.7296,4.2479,,6.1998,5.4373,4.5835,156.291,162.6641,165.5674,184.967,216.7206,213.8112,189.6893,0.0857,,0.5830,0.3930,-99.0,,-99.0,-99.0,25.6582,,25.6602,,0.6792,84.3842,,7.973,,1.0820E+03,,1.0000E-12,,11.3986,11.3981,0.1297,,58.079,68.735,41,11.410,33.6343,,164.20,0.487,0.350,13.08,0.141,0.00,1.16,12.27
CalCOFI,2007SR,009,10,2007_009d,14-Jul-2020 18:17:33,14-Jul-2020 10:17:33,32.18026,-118.88910,093.3 050.0,093.3,050.0,42.000,42.300,,11.3272,,11.3291,,11.3282,33.6646,,33.6648,33.6672,,33.6688,33.6668,3.5772,,3.7201,3.7169,4.2089,,6.1067,5.3469,4.5319,155.760,162.1098,165.0010,183.265,215.4219,210.3630,187.6820,0.0849,,0.5736,0.3864,-99.0,,-99.0,-99.0,25.6776,,25.6793,,0.6738,84.4976,,7.965,,1.0764E+03,,1.0000E-12,,11.3220,11.3239,0.1320,,57.791,68.000,,,,,,,,,,,,
CalCOFI,2007SR,009,10,2007_009d,14-Jul-2020 18:17:35,14-Jul-2020 10:17:35,32.18025,-118.88912,093.3 050.0,093.3,050.0,43.000,43.307,,11.2964,,11.2957,,11.2961,33.6676,,33.6678,33.6700,,33.6716,33.6697,3.5644,,3.7067,3.7035,4.1663,,6.0050,5.2482,4.4759,155.198,161.5231,164.4015,181.406,214.0473,206.5967,185.4991,0.0825,,0.5453,0.3669,-99.0,,-99.0,-99.0,25.6856,,25.6876,,0.6714,84.5486,,7.958,,1.0809E+03,,1.0000E-12,,11.2911,11.2904,0.1343,,57.546,67.264,,,,,,,,,,,,
CalCOFI,2007SR,009,10,2007_009d,14-Jul-2020 18:17:36,14-Jul-2020 10:17:36,32.18026,-118.88912,093.3 050.0,093.3,050.0,44.000,44.314,,11.2760,,11.2717,,11.2739,33.6697,,33.6699,33.6721,,33.6737,33.6718,3.5640,,3.7063,3.7031,4.1371,,5.9353,5.1805,4.4418,155.181,161.5053,164.3834,180.135,214.0057,204.0217,184.2026,0.0859,,0.5853,0.3946,-99.0,,-99.0,-99.0,25.6909,,25.6936,,0.6696,84.5873,,7.954,,1.0883E+03,,1.0000E-12,,11.2706,11.2662,0.1366,,57.516,66.760,,,,,,,,,,,,
CalCOFI,2007SR,009,10,2007_009d,14-Jul-2020 18:17:38,14-Jul-2020 10:17:38,32.18026,-118.88910,093.3 050.0,093.3,050.0,45.000,45.321,,11.2644,,11.2609,,11.2627,33.6705,,33.6707,33.6730,,33.6746,33.6727,3.5624,,3.7047,3.7015,4.1095,,5.8694,5.1165,4.4090,155.113,161.4344,164.3109,178.933,213.8394,201.5864,182.9487,0.0838,,0.5606,0.3774,-99.0,,-99.0,-99.0,25.6937,,25.6963,,0.6681,84.6193,,7.950,,1.0872E+03,,1.0000E-12,,11.2588,11.2553,0.1390,,57.477,66.300,,,,,,,,,,,,
CalCOFI,2007SR,009,10,2007_009d,14-Jul-2020 18:17:41,14-Jul-2020 10:17:41,32.18026,-118.88911,093.3 050.0,093.3,050.0,46.000,46.329,,11.2649,,11.2698,,11.2674,33.6709,,33.6711,33.6738,,33.6754,33.6733,3.5289,,3.6696,3.6666,4.0603,,5.7520,5.0025,4.3346,153.651,159.9082,162.7514,176.789,210.2636,197.2427,179.9971,0.0772,,0.4830,0.3250,-99.0,,-99.0,-99.0,25.6939,,25.6953,,0.6685,84.6102,,7.946,,1.0829E+03,,1.0000E-12,,11.2593,11.2641,0.1413,,56.936,65.518,,,,,,,,,,,,
CalCOFI,2007SR,009,10,2007_009d,14-Jul-2020 18:17:43,14-Jul-2020 10:17:43,32.18026,-118.88912,093.3 050.0,093.3,050.0,47.000,47.336,,11.2239,,11.2208,,11.2224,33.6744,,33.6746,33.6761,,33.6777,33.6762,3.4867,,3.6256,3.6226,4.0374,,5.6973,4.9494,4.2860,151.813,157.9895,160.7909,175.790,205.7681,195.2188,178.0049,0.0789,,0.5030,0.3383,-99.0,,-99.0,-99.0,25.7041,,25.7060,,0.6666,84.6492,,7.943,,1.0897E+03,,1.0000E-12,,11.2181,11.2151,0.1436,,56.208,65.082,,,,,,,,,,,,
CalCOFI,2007SR,009,10,2007_009d,14-Jul-2020 18:17:45,14-Jul-2020 10:17:45,32.18026,-118.88912,093.3 050.0,093.3,050.0,48.000,48.343,,11.1804,,11.1661,,11.1733,33.6762,,33.6764,33.6785,,33.6801,33.6783,3.4779,,3.6164,3.6134,4.0224,,5.6615,4.9146,4.2640,151.428,157.5876,160.3803,175.136,204.8264,193.8938,177.1371,0.0755,,0.4630,0.3119,-99.0,,-99.0,-99.0,25.7134,,25.7177,,0.6637,84.7107,,7.939,,1.0908E+03,,1.0000E-12,,11.1745,11.1602,0.1459,,56.015,64.766,,,,,,,,,,,,
CalCOFI,2007SR,009,10,2007_009d,14-Jul-2020 18:17:46,14-Jul-2020 10:17:46,32.18026,-118.88911,093.3 050.0,093.3,050.0,49.000,49.350,,11.1085,,11.1143,,11.1114,33.6840,,33.6842,33.6883,,33.6899,33.6871,3.4628,,3.6006,3.5977,4.0052,,5.6204,4.8748,4.2363,150.768,156.8986,159.6763,174.383,203.2122,192.3682,176.0223,0.0720,,0.4218,0.2855,-99.0,,-99.0,-99.0,25.7324,,25.7347,,0.6618,84.7515,,7.935,,1.0873E+03,,1.0000E-12,,11.1025,11.1083,0.1482,,55.689,64.421,,,,,,,,,,,,
CalCOFI,2007SR,009,10,2007_009d,14-Jul-2020 18:17:49,14-Jul-2020 10:17:49,32.18026,-118.88911,093.3 050.0,093.3,050.0,50.000,50.358,,11.0629,,11.0910,,11.0770,33.6871,,33.6873,33.6817,,33.6833,33.6853,3.4194,,3.5552,3.5525,3.9749,,5.5481,4.8045,4.1785,148.876,154.9236,157.6582,173.067,198.5846,189.7020,173.6801,0.0661,,0.3524,0.2427,-99.0,,-99.0,-99.0,25.7430,,25.7338,,0.6592,84.8074,,7.931,,1.0918E+03,,1.0000E-12,,11.0568,11.0849,0.1505,,54.938,63.901,,,,,,,,,,,,